This demonstration page uses our WeatherBlox Daily Observations layout. Learn more.

Left ArrowRight Arrow

47.50024, -111.30081

Hourly Observations for March 31, 2015

Temp ( °F °C ) Dew Point ( °F °C ) Humidity (%) Winds ( mph kmh ) Pressure ( in mb ) Visibility ( mi km ) Precip ( " mm )
12:53 am 00:53 Clear 50 10 28 -2.2 43 43 SSW 10 17 29.85 1011 10 16 0.00 0.00
1:53 am 01:53 Clear 46 7.8 27 -2.8 47 47 SSW 12 19 29.83 1010 10 16 0.00 0.00
2:53 am 02:53 Clear 45 7.2 26 -3.3 48 48 S 10 17 29.81 1010 10 16 0.00 0.00
3:53 am 03:53 Clear 46 7.8 25 -3.9 44 44 S 10 17 29.79 1009 10 16 0.00 0.00
4:53 am 04:53 Clear 51 10.6 25 -3.9 36 36 S 13 20 29.74 1007 10 16 0.00 0.00
5:53 am 05:53 Clear 45 7.2 26 -3.3 48 48 SSW 10 17 29.75 1007 10 16 0.00 0.00
6:53 am 06:53 Clear 47 8.3 26 -3.3 44 44 SSW 9 15 29.74 1007 10 16 0.00 0.00
7:53 am 07:53 Sunny 48 8.9 25 -3.9 41 41 SSW 12 19 29.74 1007 10 16 0.00 0.00
8:53 am 08:53 Sunny 56 13.3 26 -3.3 32 32 SSW 14 22 29.69 1005 10 16 0.00 0.00
9:53 am 09:53 Sunny 60 15.6 27 -2.8 28 28 SSW 12 19 29.66 1005 10 16 0.00 0.00
10:53 am 10:53 Sunny 68 20 24 -4.4 19 19 SSW 16 26 29.62 1003 10 16 0.00 0.00
11:53 am 11:53 Sunny 70 21.1 26 -3.3 19 19 SW 12 19 29.59 1002 10 16 0.00 0.00
12:53 pm 12:53 Sunny 74 23.3 20 -6.7 13 13 SW 22 35 29.55 1001 10 16 0.00 0.00
1:53 pm 13:53 Mostly Sunny 75 23.9 21 -6.1 13 13 WSW 23 37 29.53 1000 10 16 0.00 0.00
2:53 pm 14:53 Mostly Sunny 71 21.7 21 -6.1 15 15 W 26 43 29.52 1000 10 16 0.00 0.00
3:53 pm 15:53 Mostly Sunny 72 22.2 23 -5 16 16 W 25 41 29.50 999 10 16 0.00 0.00
4:53 pm 16:53 Sunny 70 21.1 24 -4.4 18 18 WNW 22 35 29.50 999 10 16 0.00 0.00
5:53 pm 17:53 Partly Cloudy 65 18.3 25 -3.9 22 22 W 23 37 29.54 1001 10 16 0.00 0.00
6:53 pm 18:53 Mostly Sunny 60 15.6 26 -3.3 27 27 W 20 31 29.57 1001 10 16 0.00 0.00
7:53 pm 19:53 Mostly Cloudy 55 12.8 29 -1.7 37 37 W 24 39 29.60 1002 10 16 0.00 0.00
8:53 pm 20:53 Cloudy 50 10 29 -1.7 44 44 W 22 35 29.66 1004 10 16 0.00 0.03
9:53 pm 21:53 Mostly Clear 46 7.8 28 -2.2 50 50 W 20 31 29.70 1006 10 16 0.00 0.00
10:53 pm 22:53 Cloudy 46 7.8 21 -6.1 37 37 W 20 31 29.71 1006 10 16 0.00 0.00
11:53 pm 23:53 Clear 44 6.7 18 -7.8 35 35 W 23 37 29.70 1006 10 16 0.00 0.00

Powered by AerisWeather